Mullan Pass, ID

12:11 AM PDT on October 15, 2019 (GMT -0700)
Mullan Pass

Weather History for KMLP - August, 2019

Change the Weather History Date:

Wednesday, August 7, 2019

  Actual Average (K3TH) Record (K3TH)
Temperature  
Mean Temperature 74 °F -  
Max Temperature 81 °F 85 °F 95 °F (2001)
Min Temperature 68 °F 57 °F 46 °F (1996)
Cooling Degree Days 9    
Growing Degree Days 24 (Base 50)    
Moisture  
Dew Point 35 °F    
Average Humidity 25    
Maximum Humidity 28    
Minimum Humidity 21    
Precipitation  
Precipitation 0.00 in - - ()
Sea Level Pressure  
Sea Level Pressure 29.79 in    
Wind  
Wind Speed 3 mph (SW)    
Max Wind Speed 7 mph    
Max Gust Speed -    
Visibility 10 miles    
Events      
Averages and records for this station are not official NWS values.
T = Trace of Precipitation, MM = Missing Value Source: NWS Daily Summary

Daily Weather History Graph

Daily Weather History Graph

Search for Another Location

Airport or City:

Astronomy

Aug. 07, 2019 Rise Set
Actual Time 5:28 AM PDT 8:07 PM PDT
Civil Twilight 4:53 AM PDT 8:42 PM PDT
Nautical Twilight 4:08 AM PDT 9:26 PM PDT
Astronomical Twilight 3:16 AM PDT 10:18 PM PDT
Moon 1:37 PM PDT (8/7) 11:56 PM PDT (8/7)
Length of Visible Light 15h 49m
Length of Day
14h 39m
Waxing Crescent, 51% of the Moon is Illuminated
Aug 7
Waxing Crescent
Aug 15
Full
Aug 23
Last Quarter
Aug 30
New
Sep 5
First Quarter

Hourly Weather History & Observations

Time (PDT) Temp. Dew Point Humidity Pressure Visibility Wind Dir Wind Speed Gust Speed Precip Events Conditions
12:53 AM 71.1 °F 28.9 °F 21% 29.80 in 10.0 mi Calm Calm - N/A   Clear
1:53 AM 70.0 °F 30.0 °F 23% 29.79 in 10.0 mi Calm Calm - N/A   Clear
2:53 AM 70.0 °F 30.0 °F 23% 29.78 in 10.0 mi SSW 3.5 mph - N/A   Mostly Cloudy
3:53 AM 70.0 °F 30.9 °F 24% 29.78 in 10.0 mi SSW 3.5 mph - N/A   Mostly Cloudy
4:53 AM 68.0 °F 30.0 °F 24% 29.79 in 10.0 mi SSW 4.6 mph - N/A   Mostly Cloudy
5:53 AM 69.1 °F 30.9 °F 24% 29.80 in 10.0 mi SSW 4.6 mph - N/A   Scattered Clouds
6:53 AM 69.1 °F 32.0 °F 25% 29.81 in 10.0 mi SW 4.6 mph - N/A   Clear
7:53 AM 71.1 °F 35.1 °F 27% 29.82 in 10.0 mi Calm Calm - N/A   Clear
8:53 AM 73.0 °F 36.0 °F 26% 29.81 in 10.0 mi Calm Calm - N/A   Partly Cloudy
9:53 AM 73.9 °F 37.9 °F 27% 29.82 in 10.0 mi Calm Calm - N/A   Scattered Clouds
10:53 AM 75.0 °F 37.9 °F 26% 29.82 in 10.0 mi Calm Calm - N/A   Partly Cloudy
11:53 AM 77.0 °F 39.0 °F 25% 29.82 in 9.0 mi Variable 4.6 mph - N/A   Clear
12:53 PM 77.0 °F 39.0 °F 25% 29.80 in 10.0 mi Variable 3.5 mph - N/A   Clear
1:53 PM 79.0 °F 41.0 °F 26% 29.79 in 10.0 mi Variable 6.9 mph - N/A   Clear
2:53 PM 80.1 °F 39.0 °F 23% 29.78 in 10.0 mi Calm Calm - N/A   Clear
3:53 PM 79.0 °F 37.9 °F 23% 29.77 in 10.0 mi Variable 4.6 mph - N/A   Clear
4:53 PM 78.1 °F 39.0 °F 25% 29.77 in 10.0 mi NW 6.9 mph - N/A   Partly Cloudy
5:53 PM 73.9 °F 39.0 °F 28% 29.77 in 10.0 mi Variable 3.5 mph - N/A   Clear
6:53 PM 73.0 °F 37.0 °F 27% 29.76 in 10.0 mi Variable 3.5 mph - N/A   Clear
7:53 PM 71.1 °F 35.1 °F 27% 29.76 in 10.0 mi Variable 3.5 mph - N/A   Clear
8:53 PM 69.1 °F 34.0 °F 27% 29.77 in 10.0 mi NW 3.5 mph - N/A   Clear
9:53 PM 71.1 °F 33.1 °F 25% 29.78 in 10.0 mi WSW 4.6 mph - N/A   Clear
10:53 PM 71.1 °F 32.0 °F 24% 29.78 in 10.0 mi SW 6.9 mph - N/A   Clear
11:53 PM 69.1 °F 34.0 °F 27% 29.78 in 10.0 mi Variable 5.8 mph - N/A   Clear